Weather History for EGPN - August, 2013

Change the Weather History Date:

Thursday, August 15, 2013

  Actual Average Record
Temperature  
Mean Temperature 60 °F -  
Max Temperature 69 °F 62 °F 77 °F (2004)
Min Temperature 51 °F 53 °F 51 °F (2011)
Degree Days  
Heating Degree Days 5    
Growing Degree Days 10 (Base 50)    
Moisture  
Dew Point 61 °F    
Average Humidity 86    
Maximum Humidity 94    
Minimum Humidity 78    
Precipitation  
Precipitation 0.00 in - - ()
Sea Level Pressure  
Sea Level Pressure 29.76 in    
Wind  
Wind Speed 10 mph ()    
Max Wind Speed 22 mph    
Max Gust Speed -    
Visibility 6.1 miles    
Events Rain    
Averages and records for this station are not official NWS values.
T = Trace of Precipitation, MM = Missing Value Source: Averaged Metar Reports

Daily Weather History Graph

Daily Weather History Graph

Search for Another Location

Airport or City:

Trip Planner

Search our weather history database for the weather conditions in past years. The results will help you decide how hot, cold, wet, or windy it might be!

Date:

Astronomy

Aug. 15, 2013 Rise Set
Actual Time 5:41 AM BST 8:50 PM BST
Civil Twilight 4:57 AM BST 9:34 PM BST
Nautical Twilight 3:57 AM BST 10:33 PM BST
Astronomical Twilight 2:26 AM BST 12:00 AM BST
Moon 4:13 PM BST (8/15) No Moon Set
Length of Visible Light 16h 36m
Length of Day
15h 08m
First Quarter, 61% of the Moon is Illuminated
Aug 15
First Quarter
Aug 21
Full
Aug 28
Last Quarter
Sep 5
New
Sep 12
First Quarter

Hourly Weather History & Observations

Time (BST) Temp. Dew Point Humidity Pressure Visibility Wind Dir Wind Speed Gust Speed Precip Events Conditions
6:50 AM 60.8 °F 59.0 °F 94% 29.80 in 5.0 mi SW 5.8 mph - N/A Rain Light Rain
7:20 AM 51.8 °F 50.0 °F 94% 29.80 in 5.6 mi SSW 5.8 mph - N/A Rain Light Rain
7:50 AM 60.8 °F 59.0 °F 94% 29.80 in 5.6 mi SW 6.9 mph - N/A Rain Light Rain
8:20 AM 62.6 °F 59.0 °F 88% 29.80 in 6.2 mi SW 5.8 mph - N/A Rain Light Rain
8:50 AM 62.6 °F 60.8 °F 94% 29.80 in 6.2 mi SW 6.9 mph - N/A   Mostly Cloudy
9:20 AM 69.8 °F 68.0 °F 94% 29.80 in 6.2 mi WSW 5.8 mph - N/A   Mostly Cloudy
9:50 AM 64.4 °F 60.8 °F 88% 29.80 in 6.2 mi WSW 6.9 mph - N/A   Mostly Cloudy
10:20 AM 64.4 °F 60.8 °F 88% 29.77 in 6.2 mi SW 10.4 mph - N/A   Mostly Cloudy
10:50 AM 64.4 °F 60.8 °F 88% 29.77 in 6.2 mi WSW 9.2 mph - N/A   Mostly Cloudy
11:20 AM 66.2 °F 60.8 °F 83% 29.77 in 6.2 mi WSW 11.5 mph - N/A   Mostly Cloudy
11:50 AM 68.0 °F 60.8 °F 78% 29.77 in 6.2 mi WSW 13.8 mph - N/A   Mostly Cloudy
12:20 PM 66.2 °F 60.8 °F 83% 29.77 in 6.2 mi SW 16.1 mph - N/A   Mostly Cloudy
12:50 PM 68.0 °F 62.6 °F 83% 29.77 in 6.2 mi WSW 11.5 mph - N/A   Scattered Clouds
1:20 PM 68.0 °F 62.6 °F 83% 29.77 in 6.2 mi SW 18.4 mph - N/A   Scattered Clouds
1:50 PM 68.0 °F 62.6 °F 83% 29.77 in 6.2 mi SW 20.7 mph - N/A   Scattered Clouds
2:20 PM 68.0 °F 60.8 °F 78% 29.77 in 6.2 mi WSW 19.6 mph - N/A   Scattered Clouds
2:50 PM 69.8 °F 62.6 °F 78% 29.77 in 6.2 mi SW 19.6 mph - N/A   Scattered Clouds
3:50 PM 68.0 °F 62.6 °F 83% 29.77 in 6.2 mi SW 21.9 mph - N/A   Scattered Clouds
4:20 PM 68.0 °F 62.6 °F 83% 29.74 in 6.2 mi SW 20.7 mph - N/A   Scattered Clouds
4:50 PM 68.0 °F 62.6 °F 83% 29.74 in 6.2 mi SW 19.6 mph - N/A   Mostly Cloudy
5:20 PM 66.2 °F 62.6 °F 88% 29.74 in 6.2 mi SW 12.7 mph - N/A   Mostly Cloudy
5:50 PM 68.0 °F 62.6 °F 83% 29.74 in 6.2 mi SW 15.0 mph - N/A   Scattered Clouds
6:20 PM 66.2 °F 60.8 °F 83% 29.74 in 6.2 mi SW 20.7 mph - N/A   Scattered Clouds
6:50 PM 66.2 °F 59.0 °F 78% 29.74 in 6.2 mi WSW 13.8 mph - N/A   Scattered Clouds
7:20 PM 66.2 °F 60.8 °F 83% 29.74 in 6.2 mi WSW 10.4 mph - N/A   Scattered Clouds
7:50 PM 66.2 °F 60.8 °F 83% 29.74 in 6.2 mi SW 9.2 mph - N/A   Scattered Clouds
8:20 PM 64.4 °F 60.8 °F 88% 29.74 in 6.2 mi WSW 9.2 mph - N/A   Scattered Clouds
8:50 PM 64.4 °F 60.8 °F 88% 29.74 in 6.2 mi WSW 5.8 mph - N/A   Mostly Cloudy
9:20 PM 64.4 °F 60.8 °F 88% 29.74 in 6.2 mi WNW 4.6 mph - N/A   Mostly Cloudy
9:50 PM 64.4 °F 60.8 °F 88% 29.74 in 6.2 mi WSW 5.8 mph - N/A Rain Rain Showers